Andermatt, Switzerland 16 day weather forecast

Slopes altitude range 1445 m - 2960m

Number of lifts: 20 Pistes: 125km

In some cases the lift and piste totals shown are for the ski domain (e.g. Three Valleys) rather than individual resort (e.g. Courchevel)

Overview

The 16 day weather forecast is fully updated 4 times every day.

    • Thu 21 FEB 2019
    • Thu 21
    • -5C 1C
    • Fri 22 FEB 2019
    • Fri 22
    • -6C 0C
    • Sat 23 FEB 2019
    • Sat 23
    • -5C 1C
    • Sun 24 FEB 2019
    • Sun 24
    • -4C 1C
    • Mon 25 FEB 2019
    • Mon 25
    • -5C 0C
    • Tue 26 FEB 2019
    • Tue 26
    • -3C 3C
    • Wed 27 FEB 2019
    • Wed 27
    • 0C 4C
    • Thu 28 FEB 2019
    • Thu 28
    • -2C 3C
    • Fri 01 MAR 2019
    • Fri 01
    • -1C 6C
    • Sat 02 MAR 2019
    • Sat 02
    • -1C 7C
    • Sun 03 MAR 2019
    • Sun 03
    • -2C 2C
    • Mon 04 MAR 2019
    • Mon 04
    • -1C 10C
    • Tue 05 MAR 2019
    • Tue 05
    • -1C 5C
    • Wed 06 MAR 2019
    • Wed 06
    • -3C 1C
    • Thu 07 MAR 2019
    • Thu 07
    • -7C -3C
    • Fri 08 MAR 2019
    • Fri 08
    • -10C -6C

Date:

Time Type 0°C level Temp Chill Snow Cloud Speed Gust Dir Press
18:00 1477m 1°C 1_11 0cm 41% 11mph 12mph 1030mB
21:00 1326m -6°C -6_12 0cm 0% 12mph 13mph 1031mB
0:00 1347m -6°C -6_12 0cm 0% 12mph 13mph 1032mB
3:00 1320m -6°C -6_13 0cm 0% 13mph 14mph 1032mB
6:00 1306m -6°C -6_13 0cm 0% 13mph 14mph 1032mB
9:00 2063m -6°C -6_14 0cm 0% 14mph 17mph 1030mB
12:00 2179m 0°C 0_13 0cm 0% 13mph 17mph 1029mB
15:00 2081m 0°C 0_12 0cm 38% 12mph 15mph 1028mB
18:00 1526m 0°C 0_10 0cm 44% 10mph 11mph 1031mB
21:00 1195m -7°C -7_8 0cm 4% 8mph 9mph 1032mB
0:00 1311m -7°C -7_7 0cm 2% 7mph 7mph 1032mB
3:00 1328m -6°C -6_4 0cm 0% 4mph 4mph 1032mB
6:00 1444m -6°C -6_7 0cm 0% 7mph 8mph 1032mB
9:00 3284m -5°C -5_4 0cm 0% 4mph 5mph 1032mB
12:00 2686m 1°C 1_2 0cm 0% 2mph 2mph 1031mB
15:00 2915m 1°C 1_1 0cm 40% 1mph 2mph 1030mB
18:00 1401m 1°C 1_3 0cm 63% 3mph 4mph 1032mB
21:00 1354m -6°C -6_2 0cm 0% 2mph 3mph 1033mB
0:00 1261m -7°C -7_3 0cm 0% 3mph 4mph 1034mB
3:00 1435m -6°C -6_4 0cm 0% 4mph 5mph 1034mB
6:00 1620m -6°C -6_6 0cm 0% 6mph 7mph 1034mB
9:00 3319m -4°C -4_3 0cm 35% 3mph 4mph 1034mB
12:00 3112m 1°C 1_1 0cm 44% 1mph 2mph 1033mB
15:00 3390m 1°C 1_3 0cm 29% 3mph 4mph 1032mB
18:00 1840m 1°C 1_8 0cm 15% 8mph 9mph 1033mB
21:00 1907m -2°C -2_8 0cm 0% 8mph 9mph 1034mB
0:00 1885m -2°C -2_7 0cm 0% 7mph 8mph 1034mB
3:00 1842m -2°C -2_6 0cm 1% 6mph 7mph 1034mB
6:00 1474m -5°C -5_3 0cm 31% 3mph 3mph 1035mB
9:00 2119m -5°C -5_7 0cm 94% 7mph 7mph 1035mB
12:00 2149m 0°C 0_9 0cm 63% 9mph 10mph 1034mB
15:00 2123m 0°C 0_7 0cm 0% 7mph 8mph 1033mB
18:00 1344m 0°C 0_3 0cm 0% 3mph 4mph 1035mB
21:00 1615m -6°C -6_6 0cm 0% 6mph 6mph 1036mB
0:00 1713m -6°C -6_7 0cm 15% 7mph 7mph 1035mB
3:00 1765m -3°C -3_8 0cm 59% 8mph 8mph 1034mB
6:00 1761m -3°C -3_9 0cm 30% 9mph 10mph 1033mB
9:00 3370m -3°C -3_6 0cm 3% 6mph 7mph 1032mB
12:00 3307m 3°C 3_4 0cm 46% 4mph 4mph 1030mB
15:00 3301m 3°C 3_3 0cm 95% 3mph 3mph 1029mB
18:00 2375m 3°C 3_5 0cm 78% 5mph 6mph 1030mB
21:00 1965m -2°C -2_6 0cm 29% 6mph 7mph 1030mB
0:00 2008m -2°C -2_5 0cm 15% 5mph 6mph 1029mB
3:00 2489m -1°C -1_5 0cm 0% 5mph 6mph 1027mB
6:00 2524m -1°C -1_6 0cm 0% 6mph 7mph 1027mB
9:00 3519m 0°C 0_2 0cm 0% 2mph 3mph 1025mB
12:00 3472m 4°C 4_4 0cm 0% 4mph 5mph 1024mB
15:00 3424m 4°C 4_5 0cm 22% 5mph 5mph 1023mB
18:00 2026m 4°C 4_3 0cm 44% 3mph 4mph 1024mB
21:00 1903m -2°C -2_3 0cm 16% 3mph 4mph 1025mB
0:00 1921m -2°C -2_4 0cm 9% 4mph 5mph 1025mB
3:00 1995m -2°C -2_6 0cm 4% 6mph 7mph 1024mB
6:00 1922m -2°C -2_8 0cm 19% 8mph 8mph 1025mB
9:00 3083m -2°C -2_7 0cm 11% 7mph 7mph 1024mB
12:00 3008m 3°C 3_6 0cm 12% 6mph 7mph 1023mB
15:00 2852m 3°C 3_7 0cm 98% 7mph 8mph 1022mB
18:00 1956m 3°C 3_9 0cm 88% 9mph 10mph 1023mB
21:00 1808m -2°C -2_10 0cm 23% 10mph 11mph 1025mB
0:00 1712m -3°C -3_10 0cm 27% 10mph 10mph 1025mB
3:00 1973m -1°C -1_5 0cm 27% 5mph 6mph 1025mB
6:00 1862m -1°C -1_4 0cm 15% 4mph 5mph 1025mB
9:00 2193m -1°C -1_2 0cm 39% 2mph 3mph 1024mB
12:00 2286m 6°C 6_3 0cm 64% 3mph 3mph 1023mB
15:00 2237m 7°C 7_4 0cm 90% 4mph 4mph 1021mB
18:00 2000m 7°C 7_2 0cm 90% 2mph 3mph 1023mB
21:00 1888m 0°C 0_4 0cm 71% 4mph 5mph 1024mB
0:00 1956m -1°C -1_5 0cm 75% 5mph 6mph 1023mB
3:00 1974m -1°C -1_5 0cm 87% 5mph 6mph 1023mB
6:00 1440m -1°C -1_5 0cm 90% 5mph 6mph 1022mB
9:00 2257m -1°C -1_4 0cm 93% 4mph 6mph 1021mB
12:00 2283m 7°C 7_4 0cm 93% 4mph 6mph 1018mB
15:00 2304m 7°C 7_4 0cm 34% 4mph 7mph 1016mB
18:00 2096m 7°C 7_5 0cm 33% 5mph 7mph 1017mB
21:00 2068m 1°C 1_6 0cm 98% 6mph 7mph 1017mB
0:00 1960m 1°C 1_8 0cm 99% 8mph 13mph 1017mB
3:00 1492m 0°C 0_7 6cm 100% 7mph 12mph 1018mB
6:00 1220m -2°C -2_7 5cm 100% 7mph 12mph 1020mB
9:00 1368m -2°C -2_6 1cm 100% 6mph 10mph 1022mB
12:00 1609m 2°C 2_7 1cm 97% 7mph 11mph 1022mB
Morning 0.0208333mm 0 1244m -2°C -2_9 0cm 59% 9mph 9mph 1023mB
Afternoon 0mm 0 2754m 10°C 10_12 0cm 57% 12mph 17mph 1013mB
Morning 0.75mm 1.625 1911m 2°C 2_6 0cm 98% 6mph 9mph 1013mB
Afternoon 0.140625mm 0 1873m 5°C 5_9 1cm 94% 9mph 12mph 1009mB
Morning 0.255208mm 1.0625 1821m 1°C 1_8 8cm 95% 8mph 11mph 1006mB
Afternoon 0.71875mm 3.875 1494m 1°C 1_11 31cm 76% 11mph 17mph 1010mB
Morning 0.239583mm 0.125 886m -4°C -4_10 2cm 87% 10mph 13mph 1016mB
Afternoon 0.114583mm 0.125 868m -3°C -3_13 1cm 90% 13mph 15mph 1022mB
Morning 0.177083mm 0.4375 32m -9°C -9_6 4cm 98% 6mph 9mph 1032mB
Afternoon 0.166667mm 0.0625 463m -6°C -6_8 1cm 95% 8mph 9mph 1034mB
Morning 0.0260417mm 0.0625 0m -12°C -12_10 1cm 62% 10mph 10mph 1038mB
Afternoon 0mm 0 1752m 3°C 3_5 0cm 32% 5mph 7mph 1029mB

16 day outlook at a glance

Forecast issued: 21/02/2019 17:40:38

Chat

Your comments and questions. In a resort? Let us know what it's like!


Characters left 250

For terms and conditions see Readers Comments on the Cookie and privacy policy page.